{"data":{"norad_id":61959,"epoch":"2026-05-25T04:26:59.126784Z","epoch_age_seconds":59770,"freshness":"FRESH","line1":"1 61959U 24210A   26145.18540656  .00020693  00000+0  75889-3 0  9991","line2":"2 61959  42.9993 107.4196 0000423 232.6670 127.4144 15.27601697 86620","mean_motion":15.27601697,"eccentricity":4.23e-5,"inclination_deg":42.9993,"raan_deg":107.4196,"arg_perigee_deg":232.667,"mean_anomaly_deg":127.4144,"bstar":0.00075889,"rev_number":8662,"period_min":94.265409813825,"perigee_km":482.69390276145,"apogee_km":483.2743536089,"semimajor_km":6861.1211281852,"source":"CELESTRAK","updated_at":"2026-05-25T13:38:19.490593Z"}}